Regional Weather Roundup
Issued by NWS

Home | Current Version | Previous Version | Text Only | Print | Product List | Glossary On
Versions: 1 2 3 4 5 6 7 8 9 10 11 12 13 14 15 16 17 18 19 20 21 22 23 24 25 26 27 28 29 30 31 32 33 34 35 36 37 38 39 40 41 42 43 44 45 46 47 48 49 50
000
ASUS43 KMKX 092100
RWRWI

WISCONSIN REGIONAL WEATHER ROUNDUP
NATIONAL WEATHER SERVICE MILWAUKEE/SULLIVAN WI
300 PM CST TUE FEB 09 2016

NOTE: "FAIR" INDICATES FEW OR NO CLOUDS BELOW 12,000 FEET WITH NO
SIGNIFICANT WEATHER AND/OR OBSTRUCTIONS TO VISIBILITY.

WIZ001-002-006>008-014>016-023>028-092200-
NORTHWEST WISCONSIN

CITY           SKY/WX    TMP DP  RH WIND       PRES   REMARKS
SUPERIOR ARPT  SUNNY     14  -3  48 N14       30.08S WCI  -1
ASHLAND        PTSUNNY   12   2  64 NW13      30.02S WCI  -3
HAYWARD        PTSUNNY   11  -1  58 N8        29.99S WCI  -1
SIREN          SUNNY     15  -4  42 N12G23    30.05R WCI   2
CUMBERLAND     SUNNY     12  -2  52 NW17      29.99S WCI  -5
RICE LAKE      SUNNY     13  -1  51 NW7       30.01S WCI   3
CHETEK         SUNNY     13   0  58 NW7       30.00S WCI   2
LADYSMITH      CLOUDY    12   2  66 NW16G23   29.97S WCI  -5
EAU CLAIRE     NOT AVBL
MENOMONIE      SUNNY     17   0  47 NW14      30.02S WCI   3
NEW RICHMOND   SUNNY     15  -1  49 NW16G22   30.04R WCI   0
OSCEOLA        SUNNY     15   1  51 NW18      30.09S WCI  -1
$$

WIZ003>005-009-010-017-018-092200-
NORTH CENTRAL WISCONSIN

CITY           SKY/WX    TMP DP  RH WIND       PRES   REMARKS
MANITOWISH WTR LGT SNOW   9   3  75 NW18G25   29.87S VSB 3/4 WCI  -9
ARBOR VITAE    CLOUDY    12   3  69 N23G31    29.86R HAZE    WCI  -8
WOODRUFF       CLOUDY    12   3  69 N23G31    29.86R HAZE    WCI  -8
RHINELANDER    CLOUDY    12   1  61 N12G23    29.84R WCI  -2
EAGLE RIVER    LGT SNOW  11   3  70 N13G24    29.83R WCI  -4
LAND O LAKES   SNOW      10   5  79 NW18G25   29.85R VSB 1/2 WCI  -8
PHILLIPS       CLOUDY     9   1  70 N9        29.90S WCI  -5
TOMAHAWK       CLOUDY    13   3  66 N13G24    29.87R WCI  -2
MEDFORD        CLOUDY    11   2  67 N17G23    29.88R WCI  -6
MERRILL        CLOUDY    15   5  64 N15G25    29.86R WCI  -1
$$

WIZ029-030-035-036-043>047-092200-
CENTRAL WISCONSIN

CITY           SKY/WX    TMP DP  RH WIND       PRES   REMARKS
WAUSAU         CLOUDY    16   5  62 NW14G23   29.84R WCI   2
MOSINEE        NOT AVBL
MARSHFIELD     CLOUDY    13   3  64 NW17      29.88R WCI  -4
STEVENS POINT  CLOUDY    15   4  61 NW15G28   29.85S WCI   0
WAUPACA        CLOUDY    21   8  57 NW10G21   29.85R WCI  10
WAUTOMA        NOT AVBL
WISC RAPIDS    CLOUDY    14   3  61 N21G32    29.90R WCI  -4
CAMP DOUGLAS   NOT AVBL
$$

WIZ011>013-019>022-031-037>040-048>050-092200-
NORTHEAST WISCONSIN

CITY           SKY/WX    TMP DP  RH WIND       PRES   REMARKS
ANTIGO         LGT SNOW  12   6  76 N17G26    29.81R WCI  -5
SHAWANO        CLOUDY    20   8  60 N8        29.83S WCI  10
OCONTO         CLOUDY    18   7  62 N10       29.82S WCI   6
STURGEON BAY   CLOUDY    18   7  62 NW21      29.82R WCI   1
GREEN BAY      CLOUDY    19   7  59 N14       29.83R WCI   6
MANITOWOC      NOT AVBL
APPLETON       CLOUDY    18   7  62 NW15G22     N/A  WCI   3
CLINTONVILLE   CLOUDY    19   7  58 N10G20    29.84R WCI   8
OSHKOSH        LGT SNOW  17  10  74 W15       29.83R WCI   2
$$

WIZ032>034-041-042-053>061-092200-
SOUTHWEST WISCONSIN

CITY           SKY/WX    TMP DP  RH WIND       PRES   REMARKS
LA CROSSE      SUNNY     15  -1  49 NW16      30.00S WCI  -1
SPARTA         MOSUNNY   14   2  57 NW13      29.97S WCI   0
VIROQUA        SUNNY     13   1  60 NW16      29.92S WCI  -4
BOSCOBEL       SUNNY     18   2  49 N13       29.97S WCI   5
PRAIRIE DU CHI SUNNY     15   0  52 NW13G23   29.99S WCI   1
PLATTEVILLE    MOSUNNY   15   5  64 NW17      29.92S WCI  -1
$$

WIZ056-057-062-063-064-067-068-092200-
SOUTH CENTRAL WISCONSIN

CITY           SKY/WX    TMP DP  RH WIND       PRES   REMARKS
REEDSBURG      CLOUDY    14   4  62 W16       29.91R WCI  -2
BARABOO/DELLS  CLOUDY    15   3  59 NW14G25   29.89S WCI   0
LONE ROCK      NOT AVBL
MINERAL POINT  CLOUDY    18   3  53 NW16G22   29.89S WCI   3
MADISON        LGT SNOW  15   6  67 NW15G22   29.88S WCI   0
MIDDLETON      PTSUNNY   17   8  67 NW10      29.88S WCI   5
WATERTOWN      CLOUDY    16   6  66 NW13G23   29.86R WCI   2
MONROE         LGT SNOW  14   9  79 NW7G20    29.88R WCI   4
JANESVILLE     CLOUDY    18   9  68 NW17      29.88R HAZE    WCI   2
$$

WIZ051-052-058>065-066-070>072-092200-
SOUTHEAST WISCONSIN

CITY           SKY/WX    TMP DP  RH WIND       PRES   REMARKS
MILWAUKEE      CLOUDY    18   6  59 NW15      29.84R WCI   4
WAUKESHA       CLOUDY    14   7  73 NW16G25   29.84R WCI  -2
MILWAUKEE/TIMM CLOUDY    18   7  62 NW20G25   29.84R WCI   1
RACINE         CLOUDY    17   6  62 NW12      29.85R WCI   4
BURLINGTON     CLOUDY    15   5  63 NW15G21   29.85R WCI   0
KENOSHA        FLURRIES  17   7  64 NW12      29.84R WCI   4
FOND DU LAC    LGT SNOW  17  10  74 NW15      29.83S WCI   2
SHEBOYGAN      FLURRIES  18   9  68 NW12      29.81R WCI   5
WEST BEND      FLURRIES  18   9  68 NW14G21   29.82S WCI   4
JUNEAU         LGT SNOW  14   7  72 W7G16     29.85S WCI   4
$$

LSZ147-162-092200-
LAKE SUPERIOR

STATION/POSITION TIME  TEMP    WIND        PRES    WAVE
                       AIR SEA DIR/SP/G            HT/PER
                 (UTC) (F)     (DEG/KT/KT) (MB)    (FT/S)
DEVILS ISLAND    2000   10     330/ 15/ 19 1018.6F
SAXON HARBOR     2000   12                 1016.3F
$$

LMZ867-665-643>646-092200-
LAKE MICHIGAN

STATION/POSITION TIME  TEMP    WIND        PRES    WAVE
                       AIR SEA DIR/SP/G            HT/PER
                 (UTC) (F)     (DEG/KT/KT) (MB)    (FT/S)
CHAMBERS ISLAND  2000   19     300/ 19/ 26 1008.5S
ALGOMA LAKESHORE 2011          330/ 18/ 23   N/A
KEWAUNEE LAKESHO 2000   18     330/ 13/ 20 1008.3R
SHEBOYGAN LAKESH 2000   18     330/ 19/ 22 1010.7R
PORT WASHINGTON  2040   18     310/ 10/ 17 1011.2R
MILWAUKEE LAKESH 2010   17     300/ 15/ 23   N/A
KENOSHA   LAKESH 2000   17     300/ 16/ 19 1010.2R
$$

TC  - TEMPERATURE IN CELSIUS
VSB - VISIBILITY IN STATUTE MILES
WCI - WIND CHILL INDEX
HX  - HEAT INDEX




USA.gov is the U.S. government's official web portal to all federal, state and local government web resources and services.